Вернуться в каталог

FLOCK 4H 1

АктивенНаукаSSO
NORAD 66704·PAYLOAD·🇺🇸 United States

Запущен Nov 28, 2025 с Vandenberg Space Force Base

Loading…

Ближайшие Пролёты (ближайшие 24 часа)

TLE

СвежийSource: Space-Track

Эпоха: Sep 14, 2026, 10:54 UTC

1 66704U 25276AQ  26257.45430230  .00005010  00000-0  22561-3 0  9993
2 66704  97.4094 329.7484 0002341  37.4657 322.6742 15.21518020 44006

Отслеживайте FLOCK 4H 1 в реальном времени с AllMySat

Download on the App Store